Location: Bothwell
(42.3833°S, 147.0000°E)
Time: 21:15:19
(UTC+11:00)

RS-44 - Pass Details

Date: 03 October 2022
Orbit: 1175 x 1510 km, 82.5° (Epoch: 29 November)

Event Time Altitude Azimuth Distance (km) Brightness Sun altitude
Exits shadow 23:32:02 71° 190° (S) 1,583 ? -39.3°
Drops below altitude 10° 23:39:57 10° 173° (S) 3,701 ? -40.0°
Sets 23:42:53 0° 171° (S) 4,681 ? -40.3°
